Regional Weather Roundup
Issued by NWS Sioux Falls, SD

Home | Current Version | Previous Version | Text Only | Print | Product List | Glossary On
Versions: 1 2 3 4 5 6 7 8 9 10 11 12 13 14 15 16 17 18 19 20 21 22 23 24 25 26 27 28 29 30 31 32 33 34 35 36 37 38 39 40 41 42 43 44 45 46 47 48 49 50
000
ASUS43 KFSD 022310
RWRFSD

WEATHER ROUNDUP FOR SE SOUTH DAKOTA/SW MINNESOTA/NW IOWA
NATIONAL WEATHER SERVICE SIOUX FALLS SD
600 PM CDT SUN AUG 02 2015

NOTE: "FAIR" INDICATES FEW OR NO CLOUDS BELOW 12,000 FEET WITH NO
SIGNIFICANT WEATHER AND OR OBSTRUCTIONS TO VISIBILITY.


SDZ038>040-050-052>070-030000-
SOUTHEAST SOUTH DAKOTA

CITY           SKY/WX    TMP DP  RH WIND       PRES   REMARKS
BROOKINGS      SUNNY     79  57  47 N10       29.88S
CHAMBERLAIN    SUNNY     84  58  41 NE8       29.89S
HURON          SUNNY     82  58  43 N13       29.87R
MADISON        FAIR      79  63  57 N10       29.87S
MITCHELL       SUNNY     83  61  47 N10       29.87R
SIOUX FALLS    SUNNY     83  60  45 N9        29.85R
WINNER         FAIR      88  57  34 NE6       29.91S
YANKTON        SUNNY     86  64  48 N8        29.83S
$$

MNZ071-072-080-081-089-090-097-098-030000-
SOUTHWEST MINNESOTA

CITY           SKY/WX    TMP DP  RH WIND       PRES   REMARKS
FAIRMONT       SUNNY     81  57  44 NW12G23   29.80R
JACKSON        SUNNY     81  61  50 NW18      29.84R
LUVERNE        SUNNY     82  55  39 NW9       29.85R
MARSHALL       SUNNY     79  55  44 N17G23    29.85S
MONTEVIDEO     SUNNY     81  57  44 N13G20    29.84F
PIPESTONE      SUNNY     81  63  54 NE9G16    29.86S
REDWOOD FALLS  SUNNY     80  55  42 NW16G25   29.81R
TRACY          SUNNY     77  59  53 N16G22    29.84S
WINDOM         SUNNY     79  63  57 NW16G24   29.83R
WORTHINGTON    SUNNY     81  59  47 N14       29.85R
$$

IAZ001>003-012>014-020>022-031-032-NEZ013-014-SDZ071-030000-
NORTHWEST IOWA

CITY           SKY/WX    TMP DP  RH WIND       PRES   REMARKS
CHEROKEE       SUNNY     85  73  67 NW5       29.82S
DENISON        SUNNY     84  73  70 NW8       29.80R
ESTHERVILLE    SUNNY     82  62  50 NW13      29.81R
LE MARS        SUNNY     86  70  58 N8        29.83S
ORANGE CITY    SUNNY     84  64  51 N7        29.84S
SHELDON        SUNNY     82  66  57 NW8       29.82S
SIOUX CITY     NOT AVBL
SPENCER        SUNNY     87  62  43 NW8       29.82R
STORM LAKE     SUNNY     82  70  65 N9        29.83S
$$

ABBREVIATIONS USED IN REMARKS
   TC - TEMPERATURE IN CELSIUS
  WCI - WIND CHILL INDEX
   HX - HEAT INDEX
  VSB - VISIBILITY



USA.gov is the U.S. government's official web portal to all federal, state and local government web resources and services.